Home   Weather   Korbach   Past weeks

Flag for Germany Past Weather in Korbach, Hesse, Germany — Yesterday and Last 2 Weeks

Now
81 °F

Passing clouds.


Feels Like: 80 °F
Forecast: 54 / 72 °F
Wind: 7 mph from Southwest

Location: Fritzlar Airport

Current Time: Aug 31, 2016 at 6:15:48 PM

Latest Report: Aug 31, 2016 at 5:20 PM


Visibility: N/A

Pressure: 30.09 "Hg

Humidity: 32%

Dew Point: 48 °F

Location of KorbachLocation

Past Weather in Korbach — Graph

°F

Korbach Temperature Yesterday

Maximum temperature yesterday: 73 °F (at 4:20 PM)
Minimum temperature yesterday: 54 °F (at 5:20 AM)
Average temperature yesterday: 62 °F

High & Low Weather Summary for the Past Weeks

 TemperatureHumidityPressure
High93 °F (Aug 26, 3:20 PM)100% (Aug 23, 4:20 AM)30.36 "Hg (Aug 23, 4:20 AM)
Low45 °F (Aug 18, 6:20 AM)23% (Aug 25, 4:20 PM)29.77 "Hg (Aug 18, 5:20 PM)
Average66 °F68%30.07 "Hg
* Reported Aug 16 4:20 PM — Aug 31 4:20 PM, Korbach, Weather by CustomWeather, © 2016

Note: Actual official high and low records may vary slightly from our data, if they occured in-between our weather recording intervals... More about our weather records

Advertising

Korbach Weather History for the Previous 24 Hours

Scroll right to see more
 ConditionsComfort  
Time TempWeatherWind HumidityBarometerVisibility
4:20 PM
Wed, Aug 31
79 °FPassing clouds.3 mph37%30.12 "HgN/A
3:20 PM79 °FPassing clouds.3 mph34%30.12 "HgN/A
2:20 PM77 °FPassing clouds.7 mph36%30.15 "HgN/A
1:20 PM75 °FPassing clouds.6 mph41%30.15 "HgN/A
12:20 PM72 °FPassing clouds.6 mph47%30.18 "HgN/A
11:20 AM68 °FPassing clouds.3 mph49%30.18 "HgN/A
10:20 AM64 °FPassing clouds.2 mph52%30.21 "HgN/A
9:20 AM59 °FPassing clouds.1 mph68%30.21 "HgN/A
8:20 AM52 °FPassing clouds.5 mph82%30.21 "HgN/A
7:20 AM48 °FFog.3 mph87%30.21 "HgN/A
6:20 AM48 °FFog.6 mph87%30.21 "HgN/A
5:20 AM48 °FCool.2 mph87%30.21 "HgN/A
4:20 AM48 °FCool.5 mph94%30.21 "HgN/A
3:20 AM50 °FCool.5 mph88%30.24 "HgN/A
2:20 AM52 °FCool.6 mph82%30.24 "HgN/A
1:20 AM52 °FCool.3 mph82%30.24 "HgN/A
12:20 AM55 °FCool.6 mph72%30.24 "HgN/A
11:20 PM
Tue, Aug 30
55 °FPassing clouds.6 mph72%30.27 "HgN/A
10:20 PM57 °FPassing clouds.3 mph67%30.24 "HgN/A
9:20 PM57 °FPassing clouds.2 mph63%30.24 "HgN/A
8:20 PM66 °FPassing clouds.6 mph43%30.24 "HgN/A
7:20 PM72 °FPassing clouds.8 mph31%30.24 "HgN/A
Weather by CustomWeather, © 2016

See weather overviewHow to use our weather pages